This is the latest recevied weather packets stored in our database for station/object AG7BI. If no packets are shown the sender has not sent any weather packets the latest 10 day(s).
| Time | Temp. | Humidity | Pressure | Rain* | Wind** | Luminosity | Snow |
|---|---|---|---|---|---|---|---|
| 1777882252 | 12.78° C | 59% | 1009.8 hPa | 0 mm | - | - | - |
| 1777881952 | 13.33° C | 59% | 1009.8 hPa | 0 mm | - | - | - |
| 1777881652 | 13.33° C | 58% | 1010 hPa | 0 mm | - | - | - |
| 1777881352 | 13.33° C | 54% | 1010 hPa | 0 mm | - | - | - |
| 1777881052 | 13.89° C | 57% | 1010 hPa | 0 mm | - | - | - |
| 1777880752 | 13.89° C | 54% | 1010.1 hPa | 0 mm | - | - | - |
| 1777880452 | 13.89° C | 53% | 1009.9 hPa | 0 mm | - | - | - |
| 1777880152 | 14.44° C | 54% | 1009.9 hPa | 0 mm | - | - | - |
| 1777879852 | 14.44° C | 54% | 1009.8 hPa | 0 mm | - | - | - |
| 1777879552 | 15° C | 51% | 1009.8 hPa | 0 mm | - | - | - |
| 1777879252 | 15.56° C | 50% | 1009.7 hPa | 0 mm | - | - | - |
| 1777878952 | 16.11° C | 52% | 1009.8 hPa | 0 mm | - | - | - |
| 1777878652 | 16.67° C | 50% | 1009.7 hPa | 0 mm | - | - | - |
| 1777878352 | 17.22° C | 50% | 1009.5 hPa | 0 mm | - | - | - |
| 1777878052 | 17.22° C | 44% | 1009.5 hPa | 0 mm | - | - | - |
| 1777877752 | 17.22° C | 43% | 1009.6 hPa | 0 mm | - | - | - |
| 1777877452 | 16.67° C | 43% | 1009.6 hPa | 0 mm | - | - | - |
| 1777877152 | 16.67° C | 44% | 1009.8 hPa | 0 mm | - | - | - |
| 1777876852 | 16.67° C | 44% | 1009.8 hPa | 0 mm | - | - | - |
| 1777876552 | 16.11° C | 49% | 1009.7 hPa | 0 mm | - | - | - |
| 1777876252 | 15.56° C | 52% | 1009.8 hPa | 0 mm | - | - | - |
| 1777875952 | 15.56° C | 49% | 1009.8 hPa | 0 mm | - | - | - |
| 1777875652 | 15° C | 51% | 1009.8 hPa | 0 mm | - | - | - |
| 1777875352 | 15° C | 53% | 1009.8 hPa | 0 mm | - | - | - |
| 1777875052 | 15° C | 54% | 1009.9 hPa | 0 mm | - | - | - |
* Rain latest hour (hover to see other rain measurements)
** Current wind speed in m/s (hover to see current wind gust speed)